Location: Unspecified
(0.0000°N, 0.0000°E)
Time: 12:08:19
(UTC+02:00)

SJ-6B - Visible Passes

Search period start: 04 July 2015 00:00
Search period end: 14 July 2015 00:00
Orbit: 514 x 590 km, 97.8° (Epoch: 03 July)

Date Brightness Start Highest point End Pass type
(mag) Time Alt. Az. Time Alt. Az. Time Alt. Az.
04 Jul 4.4 20:43:06 10° SSW 20:46:36 35° W 20:50:00 10° NW visible
05 Jul 4.1 20:39:27 10° S 20:43:01 40° W 20:46:31 10° NNW visible
06 Jul 3.8 20:35:48 10° S 20:39:26 47° WSW 20:43:01 10° NNW visible
07 Jul 3.5 20:32:10 10° S 20:35:52 54° W 20:39:30 10° NNW visible
08 Jul 3.2 20:28:33 10° S 20:32:17 63° W 20:35:58 10° NNW visible
